Time,TemperatureF,DewpointF,PressureIn,WindDirection,WindDirectionDegrees,WindSpeedMPH,WindSpeedGustMPH,Humidity,HourlyPrecipIn,Conditions,Clouds,dailyrainin,SoftwareType,DateUTC
2013-01-12 00:01:00,72.4,62.1,30.12,ENE,68,0.0,3.1,70,0.00,,,0.00,WSDL version 420,2013-01-12 05:01:00,
2013-01-12 00:06:00,72.3,62.0,30.12,NE,45,0.0,0.9,70,0.00,,,0.00,WSDL version 420,2013-01-12 05:06:00,
2013-01-12 00:11:00,72.2,61.9,30.12,ENE,71,0.2,2.0,70,0.00,,,0.00,WSDL version 420,2013-01-12 05:11:00,
2013-01-12 00:16:00,72.1,61.8,30.12,East,95,0.0,2.0,70,0.00,,,0.00,WSDL version 420,2013-01-12 05:16:00,
2013-01-12 00:21:00,71.9,61.6,30.12,East,90,0.0,0.0,70,0.00,,,0.00,WSDL version 420,2013-01-12 05:21:00,
2013-01-12 00:26:00,71.5,61.4,30.12,East,90,0.0,0.0,71,0.00,,,0.00,WSDL version 420,2013-01-12 05:26:00,
2013-01-12 00:31:00,71.2,61.4,30.12,East,90,0.0,0.0,71,0.00,,,0.00,WSDL version 420,2013-01-12 05:31:00,
2013-01-12 00:36:00,71.2,61.4,30.12,East,90,0.0,0.0,71,0.00,,,0.00,WSDL version 420,2013-01-12 05:36:00,
2013-01-12 00:41:00,71.2,61.4,30.12,East,90,0.0,0.0,71,0.00,,,0.00,WSDL version 420,2013-01-12 05:41:00,
2013-01-12 00:46:00,71.2,61.4,30.12,East,90,0.0,0.0,71,0.00,,,0.00,WSDL version 420,2013-01-12 05:46:00,
2013-01-12 00:51:00,71.2,61.4,30.09,ENE,68,0.0,0.0,71,0.00,,,0.00,WSDL version 420,2013-01-12 05:51:00,
2013-01-12 00:56:00,71.2,61.4,30.09,ENE,68,0.0,0.0,71,0.00,,,0.00,WSDL version 420,2013-01-12 05:56:00,
2013-01-12 01:01:00,71.2,61.6,30.09,ENE,68,0.0,0.0,72,0.00,,,0.00,WSDL version 420,2013-01-12 06:01:00,
2013-01-12 01:06:00,71.2,61.7,30.12,ENE,68,0.0,0.0,72,0.00,,,0.00,WSDL version 420,2013-01-12 06:06:00,
2013-01-12 01:11:00,71.1,62.0,30.12,ENE,68,0.0,0.0,73,0.00,,,0.00,WSDL version 420,2013-01-12 06:11:00,
2013-01-12 01:16:00,71.1,62.0,30.12,ENE,68,0.0,0.0,73,0.00,,,0.00,WSDL version 420,2013-01-12 06:16:00,
2013-01-12 01:21:00,71.0,61.9,30.15,NE,45,0.0,0.0,73,0.00,,,0.00,WSDL version 420,2013-01-12 06:21:00,
2013-01-12 01:26:00,70.9,61.9,30.15,NE,45,0.0,0.0,73,0.00,,,0.00,WSDL version 420,2013-01-12 06:26:00,
2013-01-12 01:31:00,70.9,61.8,30.15,NE,45,0.0,0.0,73,0.00,,,0.00,WSDL version 420,2013-01-12 06:31:00,
2013-01-12 01:36:00,70.9,61.8,30.15,NE,45,0.0,0.0,73,0.00,,,0.00,WSDL version 420,2013-01-12 06:36:00,
2013-01-12 01:41:00,71.0,61.9,30.15,ENE,68,0.4,1.3,72,0.00,,,0.00,WSDL version 420,2013-01-12 06:41:00,
2013-01-12 01:46:00,71.2,61.7,30.15,East,90,0.0,1.3,72,0.00,,,0.00,WSDL version 420,2013-01-12 06:46:00,
2013-01-12 01:51:00,71.2,61.7,30.12,NNE,23,0.3,2.0,72,0.00,,,0.00,WSDL version 420,2013-01-12 06:51:00,
2013-01-12 01:56:00,71.1,61.6,30.12,NNE,23,0.0,2.0,72,0.00,,,0.00,WSDL version 420,2013-01-12 06:56:00,
2013-01-12 02:01:00,71.1,61.6,30.12,North,360,0.0,1.1,72,0.00,,,0.00,WSDL version 420,2013-01-12 07:01:00,
2013-01-12 02:06:00,71.1,61.3,30.12,North,360,0.0,1.1,71,0.00,,,0.00,WSDL version 420,2013-01-12 07:06:00,
2013-01-12 02:11:00,71.1,61.2,30.12,NE,45,0.0,0.0,71,0.00,,,0.00,WSDL version 420,2013-01-12 07:11:00,
2013-01-12 02:16:00,71.1,61.2,30.12,NE,45,0.0,0.0,71,0.00,,,0.00,WSDL version 420,2013-01-12 07:16:00,
2013-01-12 02:21:00,71.1,61.2,30.12,NNE,23,0.0,1.6,71,0.00,,,0.00,WSDL version 420,2013-01-12 07:21:00,
2013-01-12 02:26:00,71.1,61.2,30.12,NE,45,0.0,1.6,71,0.00,,,0.00,WSDL version 420,2013-01-12 07:26:00,
2013-01-12 02:31:00,71.0,61.1,30.12,NE,48,0.0,0.0,71,0.00,,,0.00,WSDL version 420,2013-01-12 07:31:00,
2013-01-12 02:36:00,70.9,61.0,30.09,North,360,0.4,1.3,71,0.00,,,0.00,WSDL version 420,2013-01-12 07:36:00,
2013-01-12 02:41:00,70.9,61.0,30.09,North,360,0.0,1.3,71,0.00,,,0.00,WSDL version 420,2013-01-12 07:41:00,
2013-01-12 02:46:00,70.8,60.9,30.09,ENE,68,0.0,2.2,71,0.00,,,0.00,WSDL version 420,2013-01-12 07:46:00,
2013-01-12 02:51:00,70.7,60.8,30.09,ENE,71,0.3,2.2,71,0.00,,,0.00,WSDL version 420,2013-01-12 07:51:00,
2013-01-12 02:56:00,70.7,60.8,30.09,ENE,65,0.0,2.0,71,0.00,,,0.00,WSDL version 420,2013-01-12 07:56:00,
2013-01-12 03:01:00,70.7,60.8,30.09,NE,45,0.5,2.2,71,0.00,,,0.00,WSDL version 420,2013-01-12 08:01:00,
2013-01-12 03:06:00,70.7,60.7,30.09,East,90,0.0,2.2,70,0.00,,,0.00,WSDL version 420,2013-01-12 08:06:00,
2013-01-12 03:11:00,70.7,60.4,30.09,NE,36,0.0,0.0,70,0.00,,,0.00,WSDL version 420,2013-01-12 08:11:00,
2013-01-12 03:16:00,70.5,60.3,30.09,East,90,0.0,0.0,70,0.00,,,0.00,WSDL version 420,2013-01-12 08:16:00,
2013-01-12 03:21:00,70.4,60.2,30.09,NNE,23,0.0,0.0,70,0.00,,,0.00,WSDL version 420,2013-01-12 08:21:00,
2013-01-12 03:26:00,70.2,59.9,30.09,NNE,23,0.0,0.0,70,0.00,,,0.00,WSDL version 420,2013-01-12 08:26:00,
2013-01-12 03:31:00,70.2,60.3,30.09,WNW,293,0.0,0.0,71,0.00,,,0.00,WSDL version 420,2013-01-12 08:31:00,
2013-01-12 03:36:00,70.2,60.3,30.09,East,100,0.0,0.0,71,0.00,,,0.00,WSDL version 420,2013-01-12 08:36:00,
2013-01-12 03:41:00,70.3,60.5,30.09,East,90,0.0,0.0,71,0.00,,,0.00,WSDL version 420,2013-01-12 08:41:00,
2013-01-12 03:46:00,70.3,60.5,30.09,East,93,0.0,0.0,71,0.00,,,0.00,WSDL version 420,2013-01-12 08:46:00,
2013-01-12 03:51:00,70.4,60.4,30.09,East,98,0.7,1.6,70,0.00,,,0.00,WSDL version 420,2013-01-12 08:51:00,
2013-01-12 03:56:00,70.5,60.3,30.09,East,83,0.0,1.6,70,0.00,,,0.00,WSDL version 420,2013-01-12 08:56:00,
2013-01-12 04:01:00,70.5,60.3,30.09,East,82,0.0,2.2,70,0.00,,,0.00,WSDL version 420,2013-01-12 09:01:00,
2013-01-12 04:06:00,70.5,60.3,30.09,South,171,0.0,2.5,70,0.00,,,0.00,WSDL version 420,2013-01-12 09:06:00,
2013-01-12 04:11:00,70.4,60.1,30.09,SE,143,0.3,2.7,70,0.00,,,0.00,WSDL version 420,2013-01-12 09:11:00,
2013-01-12 04:16:00,70.3,60.5,30.09,ENE,77,0.0,2.7,71,0.00,,,0.00,WSDL version 420,2013-01-12 09:16:00,
2013-01-12 04:21:00,70.2,60.3,30.09,East,96,0.2,2.0,71,0.00,,,0.00,WSDL version 420,2013-01-12 09:21:00,
2013-01-12 04:26:00,70.2,60.3,30.09,ENE,74,1.0,2.0,71,0.00,,,0.00,WSDL version 420,2013-01-12 09:26:00,
2013-01-12 04:31:00,70.2,60.3,30.09,NNE,19,0.0,1.3,71,0.00,,,0.00,WSDL version 420,2013-01-12 09:31:00,
2013-01-12 04:36:00,70.1,60.4,30.09,NNE,23,0.0,0.0,72,0.00,,,0.00,WSDL version 420,2013-01-12 09:36:00,
2013-01-12 04:41:00,70.0,60.5,30.09,East,90,0.0,1.3,72,0.00,,,0.00,WSDL version 420,2013-01-12 09:41:00,
2013-01-12 04:46:00,70.0,60.5,30.09,ENE,73,0.0,2.2,72,0.00,,,0.00,WSDL version 420,2013-01-12 09:46:00,
2013-01-12 04:51:00,69.8,60.4,30.09,NNE,23,0.0,2.2,73,0.00,,,0.00,WSDL version 420,2013-01-12 09:51:00,
2013-01-12 04:56:00,69.5,60.7,30.09,NNE,23,0.0,0.0,74,0.00,,,0.00,WSDL version 420,2013-01-12 09:56:00,
2013-01-12 05:01:00,69.3,60.7,30.09,NNE,23,0.0,0.0,74,0.00,,,0.00,WSDL version 420,2013-01-12 10:01:00,
2013-01-12 05:06:00,69.2,60.8,30.09,NNE,23,0.0,0.0,75,0.00,,,0.00,WSDL version 420,2013-01-12 10:06:00,
2013-01-12 05:11:00,69.1,60.8,30.09,North,360,0.0,0.0,75,0.00,,,0.00,WSDL version 420,2013-01-12 10:11:00,
2013-01-12 05:16:00,68.9,61.0,30.09,North,360,0.0,0.0,76,0.00,,,0.00,WSDL version 420,2013-01-12 10:16:00,
2013-01-12 05:21:00,68.9,61.1,30.09,North,360,0.0,0.0,77,0.00,,,0.00,WSDL version 420,2013-01-12 10:21:00,
2013-01-12 05:26:00,68.7,61.2,30.09,North,360,0.0,0.0,77,0.00,,,0.00,WSDL version 420,2013-01-12 10:26:00,
2013-01-12 05:31:00,68.5,61.0,30.09,North,360,0.0,0.0,77,0.00,,,0.00,WSDL version 420,2013-01-12 10:31:00,
2013-01-12 05:36:00,68.4,61.1,30.09,North,360,0.0,0.0,78,0.00,,,0.00,WSDL version 420,2013-01-12 10:36:00,
2013-01-12 05:41:00,68.2,61.1,30.09,North,360,0.0,0.0,78,0.00,,,0.00,WSDL version 420,2013-01-12 10:41:00,
2013-01-12 05:46:00,68.2,61.2,30.09,North,360,0.0,0.0,79,0.00,,,0.00,WSDL version 420,2013-01-12 10:46:00,
2013-01-12 05:51:00,68.2,61.4,30.09,North,360,0.0,0.0,79,0.00,,,0.00,WSDL version 420,2013-01-12 10:51:00,
2013-01-12 05:56:00,68.2,61.4,30.09,North,360,0.0,0.0,79,0.00,,,0.00,WSDL version 420,2013-01-12 10:56:00,
2013-01-12 06:01:00,68.4,61.6,30.09,North,360,0.0,0.0,79,0.00,,,0.00,WSDL version 420,2013-01-12 11:01:00,
2013-01-12 06:06:00,68.4,61.6,30.09,North,360,0.0,0.0,79,0.00,,,0.00,WSDL version 420,2013-01-12 11:06:00,
2013-01-12 06:11:00,68.4,61.7,30.09,SW,225,0.0,0.0,79,0.00,,,0.00,WSDL version 420,2013-01-12 11:11:00,
2013-01-12 06:16:00,68.4,61.7,30.09,SW,225,0.0,0.0,79,0.00,,,0.00,WSDL version 420,2013-01-12 11:16:00,
2013-01-12 06:21:00,68.4,61.6,30.12,SW,225,0.0,0.0,79,0.00,,,0.00,WSDL version 420,2013-01-12 11:21:00,
2013-01-12 06:26:00,68.2,61.6,30.12,SW,225,0.0,0.0,80,0.00,,,0.00,WSDL version 420,2013-01-12 11:26:00,
2013-01-12 06:31:00,68.1,61.7,30.12,WNW,293,0.0,0.0,80,0.00,,,0.00,WSDL version 420,2013-01-12 11:31:00,
2013-01-12 06:36:00,67.8,61.4,30.12,WNW,293,0.0,0.0,80,0.00,,,0.00,WSDL version 420,2013-01-12 11:36:00,
2013-01-12 06:41:00,67.7,61.3,30.12,WNW,293,0.0,0.0,80,0.00,,,0.00,WSDL version 420,2013-01-12 11:41:00,
2013-01-12 06:46:00,67.6,61.5,30.12,WNW,293,0.0,0.0,81,0.00,,,0.00,WSDL version 420,2013-01-12 11:46:00,
2013-01-12 06:51:00,67.5,61.5,30.12,WNW,293,0.0,0.0,81,0.00,,,0.00,WSDL version 420,2013-01-12 11:51:00,
2013-01-12 06:56:00,67.3,61.3,30.12,SW,218,0.1,1.6,81,0.00,,,0.00,WSDL version 420,2013-01-12 11:56:00,
2013-01-12 07:01:00,67.1,61.1,30.12,SSW,203,0.0,1.6,81,0.00,,,0.00,WSDL version 420,2013-01-12 12:01:00,
2013-01-12 07:06:00,66.9,61.1,30.12,SSW,203,0.0,1.1,82,0.00,,,0.00,WSDL version 420,2013-01-12 12:06:00,
2013-01-12 07:11:00,66.9,61.3,30.12,SSW,203,0.0,0.0,82,0.00,,,0.00,WSDL version 420,2013-01-12 12:11:00,
2013-01-12 07:16:00,66.7,61.2,30.12,SSW,203,0.0,0.0,82,0.00,,,0.00,WSDL version 420,2013-01-12 12:16:00,
2013-01-12 07:21:00,66.7,61.1,30.15,SSW,203,0.0,0.0,82,0.00,,,0.00,WSDL version 420,2013-01-12 12:21:00,
2013-01-12 07:26:00,66.6,61.4,30.15,SSW,203,0.0,0.0,83,0.00,,,0.00,WSDL version 420,2013-01-12 12:26:00,
2013-01-12 07:31:00,66.4,61.2,30.15,SSW,203,0.0,0.0,83,0.00,,,0.00,WSDL version 420,2013-01-12 12:31:00,
2013-01-12 07:36:00,66.4,61.3,30.12,WNW,293,0.0,0.0,84,0.00,,,0.00,WSDL version 420,2013-01-12 12:36:00,
2013-01-12 07:41:00,66.4,61.6,30.12,WNW,293,0.0,0.0,84,0.00,,,0.00,WSDL version 420,2013-01-12 12:41:00,
2013-01-12 07:46:00,66.4,61.9,30.12,WNW,293,0.0,0.0,86,0.00,,,0.00,WSDL version 420,2013-01-12 12:46:00,
2013-01-12 07:51:00,66.6,62.1,30.09,WNW,293,0.0,0.0,86,0.00,,,0.00,WSDL version 420,2013-01-12 12:51:00,
2013-01-12 07:56:00,66.7,62.2,30.09,WNW,293,0.0,0.0,86,0.00,,,0.00,WSDL version 420,2013-01-12 12:56:00,
2013-01-12 08:01:00,67.1,63.0,30.09,WNW,293,0.0,0.0,87,0.00,,,0.00,WSDL version 420,2013-01-12 13:01:00,
2013-01-12 08:06:00,67.3,63.2,30.12,WNW,293,0.0,0.0,87,0.00,,,0.00,WSDL version 420,2013-01-12 13:06:00,
2013-01-12 08:11:00,67.7,63.7,30.12,WNW,293,0.0,0.0,87,0.00,,,0.00,WSDL version 420,2013-01-12 13:11:00,
2013-01-12 08:16:00,68.3,64.2,30.12,ENE,77,0.0,2.0,87,0.00,,,0.00,WSDL version 420,2013-01-12 13:16:00,
2013-01-12 08:21:00,68.8,64.7,30.09,East,79,0.4,2.7,87,0.00,,,0.00,WSDL version 420,2013-01-12 13:21:00,
2013-01-12 08:26:00,69.4,65.2,30.09,ENE,58,1.4,3.4,86,0.00,,,0.00,WSDL version 420,2013-01-12 13:26:00,
2013-01-12 08:31:00,70.0,65.2,30.09,NE,56,2.2,3.4,84,0.00,,,0.00,WSDL version 420,2013-01-12 13:31:00,
2013-01-12 08:36:00,70.7,65.3,30.09,ENE,64,2.1,3.8,81,0.00,,,0.00,WSDL version 420,2013-01-12 13:36:00,
2013-01-12 08:41:00,71.4,65.1,30.09,ENE,63,2.3,4.3,80,0.00,,,0.00,WSDL version 420,2013-01-12 13:41:00,
2013-01-12 08:46:00,72.1,64.9,30.09,ENE,77,3.2,4.3,77,0.00,,,0.00,WSDL version 420,2013-01-12 13:46:00,
2013-01-12 08:51:00,72.6,64.8,30.12,ENE,64,2.8,4.9,76,0.00,,,0.00,WSDL version 420,2013-01-12 13:51:00,
2013-01-12 08:56:00,73.1,64.8,30.12,ENE,68,3.1,5.6,74,0.00,,,0.00,WSDL version 420,2013-01-12 13:56:00,
2013-01-12 09:01:00,73.8,63.9,30.12,East,79,3.7,6.5,71,0.00,,,0.00,WSDL version 420,2013-01-12 14:01:00,
2013-01-12 09:06:00,74.1,63.4,30.12,ENE,75,3.9,6.5,69,0.00,,,0.00,WSDL version 420,2013-01-12 14:06:00,
2013-01-12 09:11:00,74.4,63.8,30.12,NE,56,3.2,6.5,70,0.00,,,0.00,WSDL version 420,2013-01-12 14:11:00,
2013-01-12 09:16:00,74.8,63.8,30.12,East,84,3.0,6.0,68,0.00,,,0.00,WSDL version 420,2013-01-12 14:16:00,
2013-01-12 09:21:00,75.1,63.7,30.12,East,96,3.2,4.9,67,0.00,,,0.00,WSDL version 420,2013-01-12 14:21:00,
2013-01-12 09:26:00,75.4,63.4,30.12,ENE,62,3.8,6.3,67,0.00,,,0.00,WSDL version 420,2013-01-12 14:26:00,
2013-01-12 09:31:00,75.5,62.9,30.12,NE,34,4.3,7.6,64,0.00,,,0.00,WSDL version 420,2013-01-12 14:31:00,
2013-01-12 09:36:00,75.7,62.1,30.12,ENE,59,4.5,7.6,62,0.00,,,0.00,WSDL version 420,2013-01-12 14:36:00,
2013-01-12 09:41:00,75.8,61.9,30.12,East,101,3.7,7.8,62,0.00,,,0.00,WSDL version 420,2013-01-12 14:41:00,
2013-01-12 09:46:00,76.2,62.5,30.12,East,96,4.0,7.8,63,0.00,,,0.00,WSDL version 420,2013-01-12 14:46:00,
2013-01-12 09:51:00,76.5,62.9,30.12,East,79,3.2,6.0,63,0.00,,,0.00,WSDL version 420,2013-01-12 14:51:00,
2013-01-12 09:56:00,76.7,62.0,30.12,ENE,60,5.0,8.5,60,0.00,,,0.00,WSDL version 420,2013-01-12 14:56:00,
2013-01-12 10:01:00,76.8,61.9,30.12,ESE,104,2.9,8.5,60,0.00,,,0.00,WSDL version 420,2013-01-12 15:01:00,
2013-01-12 10:06:00,76.7,61.5,30.12,ENE,71,4.9,6.3,59,0.00,,,0.00,WSDL version 420,2013-01-12 15:06:00,
2013-01-12 10:11:00,77.0,61.4,30.12,NE,53,4.3,10.1,58,0.00,,,0.00,WSDL version 420,2013-01-12 15:11:00,
2013-01-12 10:16:00,77.0,61.4,30.12,ENE,58,4.3,10.1,58,0.00,,,0.00,WSDL version 420,2013-01-12 15:16:00,
2013-01-12 10:21:00,76.9,61.3,30.12,ENE,70,3.4,7.6,59,0.00,,,0.00,WSDL version 420,2013-01-12 15:21:00,
2013-01-12 10:26:00,76.7,61.1,30.12,East,90,3.7,6.5,58,0.00,,,0.00,WSDL version 420,2013-01-12 15:26:00,
2013-01-12 10:31:00,76.5,60.5,30.12,ENE,73,4.9,6.5,58,0.00,,,0.00,WSDL version 420,2013-01-12 15:31:00,
2013-01-12 10:36:00,76.6,60.8,30.12,NE,53,3.9,5.8,58,0.00,,,0.00,WSDL version 420,2013-01-12 15:36:00,
2013-01-12 10:41:00,76.7,61.0,30.12,ENE,77,4.7,6.3,59,0.00,,,0.00,WSDL version 420,2013-01-12 15:41:00,
2013-01-12 10:46:00,77.2,61.0,30.12,NE,45,5.2,8.7,57,0.00,,,0.00,WSDL version 420,2013-01-12 15:46:00,
2013-01-12 10:51:00,77.5,59.9,30.12,NE,53,5.8,8.7,51,0.00,,,0.00,WSDL version 420,2013-01-12 15:51:00,
2013-01-12 10:56:00,77.5,59.4,30.12,East,90,4.8,7.4,53,0.00,,,0.00,WSDL version 420,2013-01-12 15:56:00,
2013-01-12 11:01:00,77.9,59.8,30.12,ENE,68,3.6,6.5,54,0.00,,,0.00,WSDL version 420,2013-01-12 16:01:00,
2013-01-12 11:06:00,78.1,59.2,30.12,ESE,119,5.7,8.5,53,0.00,,,0.00,WSDL version 420,2013-01-12 16:06:00,
2013-01-12 11:11:00,78.4,59.5,30.12,East,84,4.4,8.5,53,0.00,,,0.00,WSDL version 420,2013-01-12 16:11:00,
2013-01-12 11:16:00,78.8,60.2,30.12,NE,48,5.0,8.1,53,0.00,,,0.00,WSDL version 420,2013-01-12 16:16:00,
2013-01-12 11:21:00,78.8,59.3,30.12,ENE,59,5.1,8.1,52,0.00,,,0.00,WSDL version 420,2013-01-12 16:21:00,
2013-01-12 11:26:00,79.0,59.9,30.12,East,90,3.8,8.1,52,0.00,,,0.00,WSDL version 420,2013-01-12 16:26:00,
2013-01-12 11:31:00,79.1,60.3,30.12,ENE,62,3.8,6.0,52,0.00,,,0.00,WSDL version 420,2013-01-12 16:31:00,
2013-01-12 11:36:00,78.7,59.1,30.12,ENE,68,3.7,8.5,51,0.00,,,0.00,WSDL version 420,2013-01-12 16:36:00,
2013-01-12 11:41:00,78.9,59.4,30.12,ENE,62,3.4,8.5,51,0.00,,,0.00,WSDL version 420,2013-01-12 16:41:00,
2013-01-12 11:46:00,79.2,59.7,30.12,NE,48,4.7,7.8,51,0.00,,,0.00,WSDL version 420,2013-01-12 16:46:00,
2013-01-12 11:51:00,79.2,58.9,30.12,ENE,75,3.5,7.8,50,0.00,,,0.00,WSDL version 420,2013-01-12 16:51:00,
2013-01-12 11:56:00,79.0,59.1,30.12,East,95,4.0,7.4,51,0.00,,,0.00,WSDL version 420,2013-01-12 16:56:00,
2013-01-12 12:01:00,78.9,59.1,30.12,ENE,68,3.8,6.3,51,0.00,,,0.00,WSDL version 420,2013-01-12 17:01:00,
2013-01-12 12:06:00,79.1,59.8,30.09,East,84,3.7,5.8,52,0.00,,,0.00,WSDL version 420,2013-01-12 17:06:00,
2013-01-12 12:11:00,79.7,61.1,30.09,ESE,113,2.7,5.8,53,0.00,,,0.00,WSDL version 420,2013-01-12 17:11:00,
2013-01-12 12:16:00,80.7,61.8,30.09,East,93,2.6,5.8,52,0.00,,,0.00,WSDL version 420,2013-01-12 17:16:00,
2013-01-12 12:21:00,81.3,61.3,30.09,ENE,61,4.1,7.8,49,0.00,,,0.00,WSDL version 420,2013-01-12 17:21:00,
2013-01-12 12:26:00,80.8,59.8,30.09,East,84,3.4,7.8,50,0.00,,,0.00,WSDL version 420,2013-01-12 17:26:00,
2013-01-12 12:31:00,81.0,60.3,30.09,East,101,3.9,6.0,49,0.00,,,0.00,WSDL version 420,2013-01-12 17:31:00,
2013-01-12 12:36:00,80.2,59.3,30.09,East,84,4.1,6.0,50,0.00,,,0.00,WSDL version 420,2013-01-12 17:36:00,
2013-01-12 12:41:00,79.9,59.6,30.09,ESE,118,3.1,6.5,50,0.00,,,0.00,WSDL version 420,2013-01-12 17:41:00,
2013-01-12 12:46:00,80.4,60.1,30.09,ENE,68,3.2,6.5,51,0.00,,,0.00,WSDL version 420,2013-01-12 17:46:00,
2013-01-12 12:51:00,80.6,60.6,30.06,East,98,2.8,6.3,50,0.00,,,0.00,WSDL version 420,2013-01-12 17:51:00,
2013-01-12 12:56:00,80.5,60.6,30.06,NE,53,3.0,6.3,51,0.00,,,0.00,WSDL version 420,2013-01-12 17:56:00,
2013-01-12 13:01:00,79.7,59.2,30.06,ENE,61,3.5,6.0,50,0.00,,,0.00,WSDL version 420,2013-01-12 18:01:00,
2013-01-12 13:06:00,79.4,59.2,30.06,ENE,70,3.4,6.3,50,0.00,,,0.00,WSDL version 420,2013-01-12 18:06:00,
2013-01-12 13:11:00,79.6,59.9,30.06,East,100,3.0,6.3,51,0.00,,,0.00,WSDL version 420,2013-01-12 18:11:00,
2013-01-12 13:16:00,80.7,61.6,30.06,South,188,2.9,4.7,52,0.00,,,0.00,WSDL version 420,2013-01-12 18:16:00,
2013-01-12 13:21:00,81.6,61.6,30.06,ENE,64,4.6,7.4,50,0.00,,,0.00,WSDL version 420,2013-01-12 18:21:00,
2013-01-12 13:26:00,81.5,60.5,30.06,ESE,109,3.1,7.4,49,0.00,,,0.00,WSDL version 420,2013-01-12 18:26:00,
2013-01-12 13:31:00,81.4,59.5,30.06,ENE,61,4.9,6.0,47,0.00,,,0.00,WSDL version 420,2013-01-12 18:31:00,
2013-01-12 13:36:00,81.5,59.6,30.06,East,90,2.2,6.0,48,0.00,,,0.00,WSDL version 420,2013-01-12 18:36:00,
2013-01-12 13:41:00,82.0,60.8,30.06,North,354,3.5,5.8,49,0.00,,,0.00,WSDL version 420,2013-01-12 18:41:00,
2013-01-12 13:46:00,82.0,59.7,30.06,ENE,71,5.6,8.7,46,0.00,,,0.00,WSDL version 420,2013-01-12 18:46:00,
2013-01-12 13:51:00,81.4,59.2,30.06,NE,42,3.4,8.7,47,0.00,,,0.00,WSDL version 420,2013-01-12 18:51:00,
2013-01-12 13:56:00,81.2,58.5,30.06,ENE,59,4.3,6.3,45,0.00,,,0.00,WSDL version 420,2013-01-12 18:56:00,
2013-01-12 14:01:00,80.6,58.4,30.06,NE,48,2.9,6.3,48,0.00,,,0.00,WSDL version 420,2013-01-12 19:01:00,
2013-01-12 14:06:00,81.2,59.7,30.03,ENE,74,5.3,7.4,48,0.00,,,0.00,WSDL version 420,2013-01-12 19:06:00,
2013-01-12 14:11:00,81.4,59.7,30.03,SSE,160,3.1,7.4,47,0.00,,,0.00,WSDL version 420,2013-01-12 19:11:00,
2013-01-12 14:16:00,81.4,59.6,30.03,NE,51,2.5,4.3,48,0.00,,,0.00,WSDL version 420,2013-01-12 19:16:00,
2013-01-12 14:21:00,81.7,60.3,30.06,ESE,122,2.7,4.3,48,0.00,,,0.00,WSDL version 420,2013-01-12 19:21:00,
2013-01-12 14:26:00,82.1,60.8,30.06,ENE,68,4.5,7.6,47,0.00,,,0.00,WSDL version 420,2013-01-12 19:26:00,
2013-01-12 14:31:00,81.5,59.6,30.06,East,87,4.8,7.6,48,0.00,,,0.00,WSDL version 420,2013-01-12 19:31:00,
2013-01-12 14:36:00,81.3,59.8,30.06,ENE,75,3.3,6.5,48,0.00,,,0.00,WSDL version 420,2013-01-12 19:36:00,
2013-01-12 14:41:00,81.1,58.8,30.06,East,87,4.8,8.1,47,0.00,,,0.00,WSDL version 420,2013-01-12 19:41:00,
2013-01-12 14:46:00,81.1,59.0,30.06,NE,50,3.7,8.1,47,0.00,,,0.00,WSDL version 420,2013-01-12 19:46:00,
2013-01-12 14:51:00,81.1,59.6,30.09,ESE,118,3.8,7.8,49,0.00,,,0.00,WSDL version 420,2013-01-12 19:51:00,
2013-01-12 14:56:00,81.1,59.4,30.09,ENE,70,4.5,7.4,47,0.00,,,0.00,WSDL version 420,2013-01-12 19:56:00,
2013-01-12 15:01:00,81.0,59.3,30.09,East,84,3.4,7.4,47,0.00,,,0.00,WSDL version 420,2013-01-12 20:01:00,
2013-01-12 15:06:00,81.1,58.7,30.06,East,100,4.3,5.8,46,0.00,,,0.00,WSDL version 420,2013-01-12 20:06:00,
2013-01-12 15:11:00,81.3,59.1,30.06,East,79,3.3,5.8,47,0.00,,,0.00,WSDL version 420,2013-01-12 20:11:00,
2013-01-12 15:16:00,81.5,59.5,30.06,ESE,106,2.2,4.9,48,0.00,,,0.00,WSDL version 420,2013-01-12 20:16:00,
2013-01-12 15:21:00,81.5,59.3,30.06,ENE,61,4.0,8.5,46,0.00,,,0.00,WSDL version 420,2013-01-12 20:21:00,
2013-01-12 15:26:00,81.0,58.7,30.06,East,87,4.3,8.5,48,0.00,,,0.00,WSDL version 420,2013-01-12 20:26:00,
2013-01-12 15:31:00,80.5,58.4,30.06,ENE,58,4.3,8.5,47,0.00,,,0.00,WSDL version 420,2013-01-12 20:31:00,
2013-01-12 15:36:00,79.8,58.4,30.06,ENE,59,4.5,8.1,48,0.00,,,0.00,WSDL version 420,2013-01-12 20:36:00,
2013-01-12 15:41:00,79.3,58.4,30.06,ENE,65,4.0,6.5,50,0.00,,,0.00,WSDL version 420,2013-01-12 20:41:00,
2013-01-12 15:46:00,79.3,58.9,30.06,ENE,72,3.2,6.0,49,0.00,,,0.00,WSDL version 420,2013-01-12 20:46:00,
2013-01-12 15:51:00,79.5,59.5,30.06,NNW,329,2.1,5.6,51,0.00,,,0.00,WSDL version 420,2013-01-12 20:51:00,
2013-01-12 15:56:00,79.7,60.0,30.06,East,90,1.7,5.6,51,0.00,,,0.00,WSDL version 420,2013-01-12 20:56:00,
2013-01-12 16:01:00,79.7,59.3,30.06,SW,233,2.9,4.0,49,0.00,,,0.00,WSDL version 420,2013-01-12 21:01:00,
2013-01-12 16:06:00,79.6,59.3,30.06,South,169,2.4,4.7,50,0.00,,,0.00,WSDL version 420,2013-01-12 21:06:00,
2013-01-12 16:11:00,79.4,58.8,30.06,East,90,2.6,4.7,50,0.00,,,0.00,WSDL version 420,2013-01-12 21:11:00,
2013-01-12 16:16:00,79.3,59.0,30.06,NE,45,3.8,5.6,50,0.00,,,0.00,WSDL version 420,2013-01-12 21:16:00,
2013-01-12 16:21:00,79.0,58.8,30.06,ENE,62,3.9,6.5,50,0.00,,,0.00,WSDL version 420,2013-01-12 21:21:00,
2013-01-12 16:26:00,78.5,58.6,30.06,East,90,2.5,6.5,51,0.00,,,0.00,WSDL version 420,2013-01-12 21:26:00,
2013-01-12 16:31:00,78.1,58.6,30.06,ENE,68,2.4,4.0,51,0.00,,,0.00,WSDL version 420,2013-01-12 21:31:00,
2013-01-12 16:36:00,77.8,58.2,30.06,NE,53,3.0,5.8,51,0.00,,,0.00,WSDL version 420,2013-01-12 21:36:00,
2013-01-12 16:41:00,77.5,58.5,30.06,North,4,1.8,5.8,52,0.00,,,0.00,WSDL version 420,2013-01-12 21:41:00,
2013-01-12 16:46:00,77.3,58.3,30.06,ENE,68,1.8,4.3,52,0.00,,,0.00,WSDL version 420,2013-01-12 21:46:00,
2013-01-12 16:51:00,77.0,58.3,30.06,ENE,68,1.6,4.7,53,0.00,,,0.00,WSDL version 420,2013-01-12 21:51:00,
2013-01-12 16:56:00,76.8,58.7,30.06,East,84,2.8,4.7,54,0.00,,,0.00,WSDL version 420,2013-01-12 21:56:00,
2013-01-12 17:01:00,76.6,58.7,30.06,ENE,64,3.3,4.9,54,0.00,,,0.00,WSDL version 420,2013-01-12 22:01:00,
2013-01-12 17:06:00,76.4,58.9,30.03,ESE,115,1.6,4.9,55,0.00,,,0.00,WSDL version 420,2013-01-12 22:06:00,
2013-01-12 17:11:00,76.2,58.9,30.03,East,83,3.5,4.7,56,0.00,,,0.00,WSDL version 420,2013-01-12 22:11:00,
2013-01-12 17:16:00,76.0,59.2,30.03,East,80,0.5,4.7,56,0.00,,,0.00,WSDL version 420,2013-01-12 22:16:00,
2013-01-12 17:21:00,75.7,59.5,30.03,SSE,161,0.7,2.7,58,0.00,,,0.00,WSDL version 420,2013-01-12 22:21:00,
2013-01-12 17:26:00,75.6,59.8,30.03,East,81,0.0,4.3,58,0.00,,,0.00,WSDL version 420,2013-01-12 22:26:00,
2013-01-12 17:31:00,75.3,59.8,30.03,ENE,70,2.7,4.3,59,0.00,,,0.00,WSDL version 420,2013-01-12 22:31:00,
2013-01-12 17:41:00,74.8,59.5,30.06,ENE,60,2.5,4.0,59,0.00,,,0.00,WSDL version 420,2013-01-12 22:41:00,
2013-01-12 17:51:00,74.3,59.4,30.06,ENE,77,2.3,3.8,60,0.00,,,0.00,WSDL version 420,2013-01-12 22:51:00,
2013-01-12 17:56:00,73.9,59.2,30.06,East,79,1.0,2.9,60,0.00,,,0.00,WSDL version 420,2013-01-12 22:56:00,
2013-01-12 18:01:00,73.7,59.4,30.06,ENE,64,1.3,2.7,61,0.00,,,0.00,WSDL version 420,2013-01-12 23:01:00,
2013-01-12 18:06:00,73.4,59.2,30.06,ENE,68,0.6,2.7,61,0.00,,,0.00,WSDL version 420,2013-01-12 23:06:00,
2013-01-12 18:11:00,73.2,59.6,30.06,ENE,62,1.3,2.0,63,0.00,,,0.00,WSDL version 420,2013-01-12 23:11:00,
2013-01-12 18:16:00,72.9,59.6,30.06,ENE,68,0.0,2.0,63,0.00,,,0.00,WSDL version 420,2013-01-12 23:16:00,
2013-01-12 18:21:00,72.6,59.4,30.06,East,80,0.0,2.0,63,0.00,,,0.00,WSDL version 420,2013-01-12 23:21:00,
2013-01-12 18:26:00,72.5,59.6,30.06,ENE,60,0.0,2.0,64,0.00,,,0.00,WSDL version 420,2013-01-12 23:26:00,
2013-01-12 18:31:00,72.3,59.9,30.06,East,93,0.6,2.0,65,0.00,,,0.00,WSDL version 420,2013-01-12 23:31:00,
2013-01-12 18:36:00,72.1,60.0,30.06,ENE,68,1.1,2.0,66,0.00,,,0.00,WSDL version 420,2013-01-12 23:36:00,
2013-01-12 18:41:00,72.0,60.0,30.06,East,84,0.6,2.7,66,0.00,,,0.00,WSDL version 420,2013-01-12 23:41:00,
2013-01-12 18:46:00,71.8,60.1,30.06,NE,53,1.4,2.7,66,0.00,,,0.00,WSDL version 420,2013-01-12 23:46:00,
2013-01-12 18:51:00,71.6,60.0,30.09,ENE,68,0.7,2.5,67,0.00,,,0.00,WSDL version 420,2013-01-12 23:51:00,
2013-01-12 18:56:00,71.6,60.0,30.09,ENE,68,0.0,1.6,67,0.00,,,0.00,WSDL version 420,2013-01-12 23:56:00,
2013-01-12 19:01:00,71.4,60.2,30.09,ENE,72,1.3,2.0,68,0.00,,,0.00,WSDL version 420,2013-01-13 00:01:00,
2013-01-12 19:06:00,71.4,60.3,30.09,ENE,61,0.5,2.0,68,0.00,,,0.00,WSDL version 420,2013-01-13 00:06:00,
2013-01-12 19:11:00,71.2,60.1,30.09,NNE,23,0.5,2.0,68,0.00,,,0.00,WSDL version 420,2013-01-13 00:11:00,
2013-01-12 19:16:00,71.0,59.9,30.09,North,5,0.0,2.0,68,0.00,,,0.00,WSDL version 420,2013-01-13 00:16:00,
2013-01-12 19:21:00,70.7,59.8,30.06,NNW,338,0.0,0.0,69,0.00,,,0.00,WSDL version 420,2013-01-13 00:21:00,
2013-01-12 19:26:00,70.6,59.9,30.06,NW,315,0.0,0.9,69,0.00,,,0.00,WSDL version 420,2013-01-13 00:26:00,
2013-01-12 19:31:00,70.3,59.6,30.06,NNW,338,0.0,0.9,69,0.00,,,0.00,WSDL version 420,2013-01-13 00:31:00,
2013-01-12 19:41:00,69.8,59.6,30.06,NW,315,0.0,0.0,70,0.00,,,0.00,WSDL version 420,2013-01-13 00:41:00,
2013-01-12 19:46:00,69.6,59.8,30.06,NW,315,0.0,0.0,71,0.00,,,0.00,WSDL version 420,2013-01-13 00:46:00,
2013-01-12 19:51:00,69.4,59.6,30.09,NW,315,0.0,0.0,71,0.00,,,0.00,WSDL version 420,2013-01-13 00:51:00,
2013-01-12 19:56:00,69.2,59.8,30.09,NW,315,0.0,0.0,72,0.00,,,0.00,WSDL version 420,2013-01-13 00:56:00,
2013-01-12 20:01:00,69.0,59.7,30.09,NW,315,0.0,0.0,73,0.00,,,0.00,WSDL version 420,2013-01-13 01:01:00,
2013-01-12 20:06:00,68.7,59.7,30.09,NW,315,0.0,0.0,73,0.00,,,0.00,WSDL version 420,2013-01-13 01:06:00,
2013-01-12 20:11:00,68.6,59.8,30.09,NW,315,0.0,0.0,74,0.00,,,0.00,WSDL version 420,2013-01-13 01:11:00,
2013-01-12 20:16:00,68.5,59.9,30.09,NW,315,0.0,0.0,74,0.00,,,0.00,WSDL version 420,2013-01-13 01:16:00,
2013-01-12 20:21:00,68.4,60.1,30.06,NW,315,0.0,0.0,75,0.00,,,0.00,WSDL version 420,2013-01-13 01:21:00,
2013-01-12 20:26:00,68.2,60.3,30.06,NW,315,0.0,0.0,76,0.00,,,0.00,WSDL version 420,2013-01-13 01:26:00,
2013-01-12 20:36:00,68.0,60.5,30.09,NW,315,0.0,0.0,77,0.00,,,0.00,WSDL version 420,2013-01-13 01:36:00,
2013-01-12 20:41:00,68.0,60.5,30.09,WSW,251,0.0,0.0,77,0.00,,,0.00,WSDL version 420,2013-01-13 01:41:00,
2013-01-12 20:46:00,67.9,60.6,30.09,WSW,248,0.0,0.0,78,0.00,,,0.00,WSDL version 420,2013-01-13 01:46:00,
2013-01-12 20:51:00,67.8,60.9,30.09,WSW,248,0.0,0.0,79,0.00,,,0.00,WSDL version 420,2013-01-13 01:51:00,
2013-01-12 20:56:00,67.6,60.9,30.09,WSW,248,0.0,0.0,79,0.00,,,0.00,WSDL version 420,2013-01-13 01:56:00,
2013-01-12 21:01:00,67.6,60.9,30.09,WSW,248,0.0,0.0,79,0.00,,,0.00,WSDL version 420,2013-01-13 02:01:00,
2013-01-12 21:06:00,67.5,60.7,30.09,WSW,248,0.0,0.0,79,0.00,,,0.00,WSDL version 420,2013-01-13 02:06:00,
2013-01-12 21:11:00,67.4,60.6,30.09,WSW,248,0.0,0.0,79,0.00,,,0.00,WSDL version 420,2013-01-13 02:11:00,
2013-01-12 21:16:00,67.3,60.6,30.09,WSW,248,0.0,0.0,79,0.00,,,0.00,WSDL version 420,2013-01-13 02:16:00,
2013-01-12 21:21:00,67.1,60.7,30.09,WSW,248,0.0,0.0,80,0.00,,,0.00,WSDL version 420,2013-01-13 02:21:00,
2013-01-12 21:26:00,67.0,60.6,30.09,WSW,248,0.0,0.0,80,0.00,,,0.00,WSDL version 420,2013-01-13 02:26:00,
2013-01-12 21:31:00,66.9,60.6,30.09,WSW,248,0.0,0.0,80,0.00,,,0.00,WSDL version 420,2013-01-13 02:31:00,
2013-01-12 21:36:00,66.8,60.8,30.06,WSW,248,0.0,0.0,81,0.00,,,0.00,WSDL version 420,2013-01-13 02:36:00,
2013-01-12 21:41:00,66.7,60.8,30.06,WSW,248,0.0,0.0,81,0.00,,,0.00,WSDL version 420,2013-01-13 02:41:00,
2013-01-12 21:46:00,66.6,60.6,30.06,WSW,248,0.0,0.0,81,0.00,,,0.00,WSDL version 420,2013-01-13 02:46:00,
2013-01-12 21:51:00,66.4,60.5,30.06,WSW,248,0.0,0.0,81,0.00,,,0.00,WSDL version 420,2013-01-13 02:51:00,
2013-01-12 21:56:00,66.4,60.6,30.06,WSW,248,0.0,0.0,82,0.00,,,0.00,WSDL version 420,2013-01-13 02:56:00,
2013-01-12 22:01:00,66.4,60.8,30.06,WSW,248,0.0,0.0,82,0.00,,,0.00,WSDL version 420,2013-01-13 03:01:00,
2013-01-12 22:06:00,66.3,60.7,30.06,WSW,248,0.0,0.0,82,0.00,,,0.00,WSDL version 420,2013-01-13 03:06:00,
2013-01-12 22:11:00,66.2,60.6,30.06,WSW,248,0.0,0.0,82,0.00,,,0.00,WSDL version 420,2013-01-13 03:11:00,
2013-01-12 22:16:00,66.1,60.8,30.06,WSW,248,0.0,0.0,83,0.00,,,0.00,WSDL version 420,2013-01-13 03:16:00,
2013-01-12 22:21:00,66.0,60.8,30.06,WSW,248,0.0,0.0,83,0.00,,,0.00,WSDL version 420,2013-01-13 03:21:00,
2013-01-12 22:26:00,65.8,60.7,30.06,WSW,248,0.0,0.0,83,0.00,,,0.00,WSDL version 420,2013-01-13 03:26:00,
2013-01-12 22:31:00,65.8,60.9,30.06,WSW,248,0.0,0.0,84,0.00,,,0.00,WSDL version 420,2013-01-13 03:31:00,
2013-01-12 22:36:00,65.8,60.9,30.06,WSW,248,0.0,0.0,84,0.00,,,0.00,WSDL version 420,2013-01-13 03:36:00,
2013-01-12 22:41:00,65.7,60.8,30.06,WSW,248,0.0,0.0,84,0.00,,,0.00,WSDL version 420,2013-01-13 03:41:00,
2013-01-12 22:46:00,65.7,60.8,30.06,WSW,248,0.0,0.0,84,0.00,,,0.00,WSDL version 420,2013-01-13 03:46:00,
2013-01-12 22:51:00,65.7,61.0,30.06,WSW,248,0.0,0.0,86,0.00,,,0.00,WSDL version 420,2013-01-13 03:51:00,
2013-01-12 22:56:00,65.6,61.0,30.06,WSW,248,0.0,0.0,84,0.00,,,0.00,WSDL version 420,2013-01-13 03:56:00,
2013-01-12 23:01:00,65.5,60.9,30.06,WSW,248,0.0,0.0,86,0.00,,,0.00,WSDL version 420,2013-01-13 04:01:00,
2013-01-12 23:06:00,65.5,61.0,30.06,WSW,248,0.0,0.0,86,0.00,,,0.00,WSDL version 420,2013-01-13 04:06:00,
2013-01-12 23:11:00,65.6,61.2,30.06,WSW,248,0.0,0.0,86,0.00,,,0.00,WSDL version 420,2013-01-13 04:11:00,
2013-01-12 23:16:00,65.7,61.6,30.06,WSW,248,0.0,0.0,87,0.00,,,0.00,WSDL version 420,2013-01-13 04:16:00,
2013-01-12 23:21:00,65.7,61.6,30.06,WSW,248,0.0,0.0,87,0.00,,,0.00,WSDL version 420,2013-01-13 04:21:00,
2013-01-12 23:26:00,65.8,61.8,30.06,WSW,248,0.0,0.0,87,0.00,,,0.00,WSDL version 420,2013-01-13 04:26:00,
2013-01-12 23:31:00,65.9,61.8,30.06,WSW,248,0.0,0.0,87,0.00,,,0.00,WSDL version 420,2013-01-13 04:31:00,
2013-01-12 23:36:00,66.0,61.9,30.06,WSW,248,0.0,0.0,87,0.00,,,0.00,WSDL version 420,2013-01-13 04:36:00,
2013-01-12 23:41:00,66.0,61.9,30.06,WSW,248,0.0,0.0,87,0.00,,,0.00,WSDL version 420,2013-01-13 04:41:00,
2013-01-12 23:46:00,66.0,61.9,30.06,WSW,248,0.0,0.0,87,0.00,,,0.00,WSDL version 420,2013-01-13 04:46:00,
2013-01-12 23:51:00,66.0,62.1,30.06,WSW,248,0.0,0.0,88,0.00,,,0.00,WSDL version 420,2013-01-13 04:51:00,
2013-01-12 23:56:00,66.2,62.1,30.06,WSW,248,0.0,0.0,87,0.00,,,0.00,WSDL version 420,2013-01-13 04:56:00,